Theta_e
289 288 288 288 288 288 288 288 288 288 288 288 288 288 288 289 289 289 289 289 289 290 290 290 290 291 291
288 288 287 287 288 288 288 287 287 287 287 287 287 287 287 287 287 288 288 288 289 289 289 290 290 290 290
288 288 287 287 287 287 286 287 287 286 286 286 286 286 286 286 286 287 288 288 288 288 288 289 290 290 290
287 287 287 287 287 286 286 286 286 286 285 285 285 285 285 285 285 285 285 284 285 286 287 288 289 289 289
287 286 286 286 286 286 286 286 285 286 285 285 285 285 285 285 285 285 285 285 285 285 285 286 287 288 288
286 285 285 285 285 285 285 285 285 285 284 284 284 284 284 284 284 284 284 284 284 284 285 285 285 286 288
285 285 284 284 284 284 284 284 283 283 284 283 284 284 283 284 284 284 284 283 283 284 284 284 285 285 286
285 284 284 283 284 284 284 283 283 283 283 283 283 283 283 283 284 284 283 283 283 283 283 284 284 285 286
284 283 283 283 283 283 283 283 283 282 282 282 282 282 282 283 283 282 282 282 282 283 283 283 283 284 285
283 283 283 283 283 282 282 283 282 282 281 281 281 281 282 282 282 282 282 282 282 282 283 283 283 283 284
283 283 283 283 282 282 282 282 281 281 280 280 280 280 280 281 281 282 281 281 282 282 282 282 282 283 283
283 283 282 282 282 281 281 281 280 280 280 280 280 280 280 280 280 281 281 281 281 281 282 282 282 282 283
283 283 282 281 281 281 280 280 280 280 280 280 280 280 280 280 280 280 280 281 281 281 281 281 282 282 282
282 282 281 281 281 280 280 280 280 280 279 279 279 280 280 279 279 280 280 280 280 280 280 281 281 281 282
281 281 281 281 280 280 280 280 280 280 280 279 279 279 279 279 279 279 280 280 280 280 280 280 281 281 281
280 280 280 280 280 280 280 280 280 279 279 280 279 280 279 279 279 279 279 279 279 279 280 280 280 281 281
280 280 280 280 279 280 279 279 279 279 279 279 279 279 279 279 279 279 278 279 279 279 279 279 280 280 280
Wind_Speed
7 7 7 8 9 10 11 12 14 16 18 19 21 21 21 21 21 20 19 20 21 21 22 23 23 22 20
7 6 6 6 7 9 11 13 14 15 17 18 20 21 21 21 22 20 19 20 22 23 23 23 23 23 21
7 6 6 6 7 8 9 11 11 13 15 17 18 19 19 19 18 19 18 20 23 24 24 23 23 23 23
7 5 5 7 8 8 8 9 10 10 13 14 15 17 18 17 17 19 21 24 27 27 25 25 24 23 23
7 5 5 6 7 8 9 10 10 11 12 13 13 15 16 17 17 20 21 23 26 26 27 25 25 23 22
7 6 5 5 6 7 9 10 11 13 14 14 15 15 16 17 16 17 17 22 26 27 26 27 27 24 21
7 6 5 5 5 6 7 9 11 13 15 13 14 15 14 15 15 13 16 23 25 26 26 25 26 25 22
7 6 5 5 6 7 8 10 11 12 12 12 18 18 16 13 9 13 20 20 21 23 24 25 26 25 23
7 6 5 3 6 7 8 10 11 12 10 15 19 22 20 10 9 22 18 18 18 20 21 23 26 26 22
9 7 6 6 6 7 7 7 9 9 12 18 17 19 15 11 22 19 19 17 16 16 19 21 23 26 24
11 9 8 7 7 6 5 7 8 9 11 14 15 15 15 22 23 20 22 20 17 15 18 19 20 22 25
12 10 9 7 6 5 6 6 7 8 10 11 13 15 18 22 21 25 22 20 15 21 20 20 19 19 19
13 10 9 8 6 6 5 5 5 6 8 9 11 14 16 18 22 23 25 21 18 21 21 21 21 22 24
13 11 10 8 7 6 5 4 3 3 5 9 11 14 16 16 18 20 17 18 21 20 22 21 19 18 19
15 13 11 9 8 7 5 4 4 5 4 6 9 12 13 16 17 15 17 18 19 21 22 23 20 19 18
17 15 13 11 9 8 7 6 6 7 8 10 13 14 13 10 11 17 17 20 21 20 19 22 24 19 18
16 15 14 12 11 10 9 8 8 8 8 10 12 15 18 19 19 12 19 19 22 21 20 21 24 22 21
Wind_Direction
253 287 312 327 337 345 352 354 354 351 348 348 350 351 352 351 350 348 341 337 333 330 325 325 325 324 326
250 279 298 313 328 342 345 350 352 347 349 349 350 353 354 354 353 349 338 335 333 329 332 331 326 328 328
240 255 285 310 328 337 346 345 348 350 349 351 352 352 355 353 348 348 349 346 345 342 338 332 329 328 330
240 244 273 298 314 328 333 345 346 352 352 356 352 348 348 353 351 343 342 341 345 348 343 336 330 332 331
239 249 267 289 305 322 334 341 342 339 358 352 350 348 345 349 348 347 351 349 348 352 350 344 336 337 334
236 243 258 276 301 319 332 342 359 343 350 352 346 352 347 348 348 344 349 350 348 349 350 345 343 344 338
238 241 254 273 293 310 332 345 350 343 341 347 345 352 356 346 344 347 347 344 343 343 345 345 341 347 343
233 242 255 273 287 319 334 338 344 346 348 350 346 347 355 349 351 357 338 337 339 339 340 341 340 344 346
225 234 239 264 305 316 326 333 340 347 346 346 344 341 345 7 2 339 340 342 341 342 338 339 337 339 344
227 233 245 263 279 295 310 324 334 347 333 338 344 348 341 342 348 350 352 350 346 344 342 341 338 338 345
220 229 238 253 266 280 298 310 322 329 324 333 339 340 337 332 343 355 355 354 350 344 339 344 345 345 343
217 222 234 237 238 258 277 292 311 323 330 333 334 336 336 338 338 346 351 357 355 349 345 343 343 342 346
221 229 231 225 234 246 255 277 308 322 329 332 332 332 334 335 331 344 342 352 349 345 343 345 344 343 342
229 231 227 227 238 234 244 268 291 314 320 322 325 329 330 332 332 337 339 336 340 340 338 340 344 342 342
228 223 222 228 228 235 247 272 298 316 318 308 315 321 322 326 330 332 331 333 334 334 333 332 340 344 338
223 222 223 226 228 238 252 268 289 306 318 322 327 325 322 330 335 333 333 334 332 332 332 328 328 343 338
224 224 225 229 232 237 248 263 277 291 303 313 322 321 323 325 329 345 333 336 332 332 333 329 325 334 334